• In Netherlands
  • List of Countries
  • For 7 days
  • Water Temperature
  • Satellite Maps
  • Weather Map
  • Weather Widgets
  • user-avatar
    Login

    Hourly Weather Salta

    Today, 18 October, Wednesday

    Time Temperature Precipitation Wind Pressure Humidity
    00:00 +24°C° 0 mm 1 mps 649 mmHg 49%
    01:00 +24°C° 0 mm 1 mps 649 mmHg 49%
    02:00 +24°C° 0 mm 1 mps 649 mmHg 49%
    03:00 +23°C° 0 mm 1 mps 649 mmHg 47%
    04:00 +23°C° 0 mm 1 mps 649 mmHg 44%
    05:00 +23°C° 0 mm 2 mps 649 mmHg 42%
    06:00 +25°C° 0 mm 1 mps 649 mmHg 37%
    07:00 +27°C° 0 mm 1 mps 650 mmHg 32%
    08:00 +30°C° 0 mm 1 mps 651 mmHg 27%
    09:00 +32°C° 0 mm 2 mps 651 mmHg 24%
    10:00 +35°C° 0 mm 2 mps 652 mmHg 20%
    11:00 +37°C° 0 mm 3 mps 652 mmHg 16%
    12:00 +37°C° 0 mm 3 mps 651 mmHg 15%
    13:00 +38°C° 0 mm 3 mps 651 mmHg 15%
    14:00 +40°C° 0 mm 4 mps 650 mmHg 14%
    15:00 +38°C° 0 mm 4 mps 650 mmHg 16%
    16:00 +37°C° 0 mm 4 mps 649 mmHg 18%
    17:00 +36°C° 0 mm 4 mps 649 mmHg 21%
    18:00 +34°C° 0 mm 3 mps 649 mmHg 28%
    19:00 +30°C° 0 mm 2 mps 649 mmHg 35%
    20:00 +28°C° 0 mm 1 mps 649 mmHg 42%
    21:00 +27°C° 0.4 mm 1 mps 650 mmHg 45%
    22:00 +26°C° 0.4 mm 2 mps 650 mmHg 48%
    23:00 +26°C° 0.4 mm 2 mps 651 mmHg 51%

    Tomorrow, 19 October, Thursday

    Time Temperature Precipitation Wind Pressure Humidity
    00:00 +25°C° 0.3 mm 2 mps 651 mmHg 53%
    01:00 +24°C° 0.3 mm 2 mps 651 mmHg 55%
    02:00 +24°C° 0.3 mm 2 mps 651 mmHg 57%
    03:00 +23°C° 0.3 mm 2 mps 652 mmHg 64%
    04:00 +21°C° 0.3 mm 2 mps 652 mmHg 70%
    05:00 +20°C° 0.3 mm 2 mps 653 mmHg 76%
    06:00 +20°C° 0.1 mm 2 mps 653 mmHg 74%
    07:00 +20°C° 0.1 mm 3 mps 654 mmHg 72%
    08:00 +20°C° 0.1 mm 3 mps 654 mmHg 70%
    09:00 +21°C° 0 mm 3 mps 654 mmHg 62%
    10:00 +22°C° 0 mm 3 mps 655 mmHg 55%
    11:00 +24°C° 0 mm 3 mps 655 mmHg 47%
    12:00 +25°C° 0 mm 4 mps 654 mmHg 42%
    13:00 +26°C° 0 mm 4 mps 653 mmHg 37%
    14:00 +27°C° 0 mm 4 mps 652 mmHg 32%
    15:00 +26°C° 0.1 mm 4 mps 652 mmHg 32%
    16:00 +26°C° 0.1 mm 3 mps 651 mmHg 32%
    17:00 +25°C° 0.1 mm 3 mps 650 mmHg 32%
    18:00 +22°C° 0 mm 3 mps 651 mmHg 35%
    19:00 +21°C° 0 mm 2 mps 651 mmHg 38%
    20:00 +19°C° 0 mm 2 mps 651 mmHg 41%
    21:00 +19°C° 0 mm 2 mps 651 mmHg 42%
    22:00 +19°C° 0 mm 1 mps 651 mmHg 43%
    23:00 +19°C° 0 mm 1 mps 651 mmHg 43%

    Day after tomorrow, 20 October, Friday

    Time Temperature Precipitation Wind Pressure Humidity
    00:00 +19°C° 0 mm 1 mps 650 mmHg 44%
    01:00 +19°C° 0 mm 1 mps 649 mmHg 44%
    02:00 +18°C° 0 mm 1 mps 648 mmHg 45%
    03:00 +18°C° 0 mm 1 mps 648 mmHg 44%
    04:00 +18°C° 0 mm 1 mps 648 mmHg 42%
    05:00 +16°C° 0 mm 1 mps 647 mmHg 40%
    06:00 +20°C° 0 mm 1 mps 648 mmHg 36%
    07:00 +22°C° 0 mm 1 mps 649 mmHg 32%
    08:00 +24°C° 0 mm 2 mps 649 mmHg 27%
    09:00 +26°C° 0 mm 2 mps 650 mmHg 25%
    10:00 +28°C° 0 mm 2 mps 650 mmHg 23%
    11:00 +30°C° 0 mm 3 mps 650 mmHg 20%
    12:00 +31°C° 0 mm 3 mps 649 mmHg 20%
    13:00 +33°C° 0 mm 3 mps 649 mmHg 19%
    14:00 +34°C° 0 mm 3 mps 648 mmHg 19%
    15:00 +33°C° 0 mm 3 mps 648 mmHg 21%
    16:00 +33°C° 0 mm 3 mps 647 mmHg 23%
    17:00 +31°C° 0 mm 3 mps 647 mmHg 24%
    18:00 +29°C° 0 mm 2 mps 647 mmHg 32%
    19:00 +26°C° 0 mm 2 mps 647 mmHg 39%
    20:00 +24°C° 0 mm 1 mps 647 mmHg 46%
    21:00 +23°C° 0 mm 1 mps 648 mmHg 49%
    22:00 +23°C° 0 mm 1 mps 648 mmHg 51%
    23:00 +22°C° 0 mm 1 mps 649 mmHg 53%

    21 October, Saturday

    Time Temperature Precipitation Wind Pressure Humidity
    00:00 +22°C° 0 mm 1 mps 648 mmHg 53%
    01:00 +22°C° 0 mm 1 mps 648 mmHg 53%
    02:00 +21°C° 0 mm 1 mps 648 mmHg 53%
    03:00 +21°C° 0 mm 1 mps 648 mmHg 54%
    04:00 +21°C° 0 mm 1 mps 649 mmHg 55%
    05:00 +20°C° 0 mm 1 mps 649 mmHg 56%
    06:00 +21°C° 0 mm 2 mps 650 mmHg 56%
    07:00 +23°C° 0 mm 2 mps 652 mmHg 56%
    08:00 +24°C° 0 mm 3 mps 653 mmHg 56%
    09:00 +24°C° 0.6 mm 3 mps 653 mmHg 59%
    10:00 +24°C° 0.6 mm 3 mps 653 mmHg 62%
    11:00 +22°C° 0.6 mm 3 mps 653 mmHg 66%
    12:00 +22°C° 0.2 mm 3 mps 652 mmHg 66%
    13:00 +22°C° 0.2 mm 4 mps 651 mmHg 66%
    14:00 +22°C° 0.2 mm 4 mps 651 mmHg 67%
    15:00 +21°C° 0.1 mm 3 mps 651 mmHg 69%
    16:00 +21°C° 0.1 mm 3 mps 651 mmHg 71%
    17:00 +20°C° 0.1 mm 3 mps 650 mmHg 73%
    18:00 +19°C° 0.1 mm 3 mps 651 mmHg 76%
    19:00 +18°C° 0.1 mm 3 mps 652 mmHg 79%
    20:00 +18°C° 0.1 mm 2 mps 653 mmHg 81%
    21:00 +17°C° 0.1 mm 2 mps 654 mmHg 82%
    22:00 +17°C° 0.1 mm 2 mps 654 mmHg 83%
    23:00 +17°C° 0.1 mm 2 mps 654 mmHg 83%

    22 October, Sunday

    Time Temperature Precipitation Wind Pressure Humidity
    00:00 +17°C° 0 mm 2 mps 654 mmHg 83%
    01:00 +16°C° 0 mm 2 mps 654 mmHg 83%
    02:00 +16°C° 0 mm 2 mps 654 mmHg 83%
    03:00 +16°C° 0.1 mm 2 mps 654 mmHg 82%
    04:00 +15°C° 0.1 mm 2 mps 654 mmHg 81%
    05:00 +15°C° 0.1 mm 2 mps 654 mmHg 80%
    06:00 +15°C° 0 mm 2 mps 655 mmHg 78%
    07:00 +15°C° 0 mm 2 mps 655 mmHg 75%
    08:00 +15°C° 0 mm 2 mps 655 mmHg 73%
    09:00 +16°C° 0 mm 2 mps 655 mmHg 68%
    10:00 +16°C° 0 mm 2 mps 655 mmHg 62%
    11:00 +17°C° 0 mm 2 mps 655 mmHg 57%
    12:00 +19°C° 0 mm 2 mps 654 mmHg 53%
    13:00 +20°C° 0 mm 3 mps 653 mmHg 49%
    14:00 +21°C° 0 mm 3 mps 653 mmHg 45%
    15:00 +21°C° 0 mm 3 mps 652 mmHg 48%
    16:00 +20°C° 0 mm 3 mps 652 mmHg 52%
    17:00 +19°C° 0 mm 3 mps 651 mmHg 55%
    18:00 +18°C° 0 mm 3 mps 651 mmHg 61%
    19:00 +17°C° 0 mm 2 mps 651 mmHg 67%
    20:00 +16°C° 0 mm 2 mps 651 mmHg 73%
    21:00 +15°C° 0 mm 1 mps 651 mmHg 75%
    22:00 +15°C° 0 mm 1 mps 651 mmHg 77%
    23:00 +15°C° 0 mm 1 mps 651 mmHg 79%

    23 October, Monday

    Time Temperature Precipitation Wind Pressure Humidity
    00:00 +14°C° 0 mm 1 mps 651 mmHg 79%
    01:00 +14°C° 0 mm 1 mps 650 mmHg 79%
    02:00 +14°C° 0 mm 1 mps 650 mmHg 79%
    03:00 +14°C° 0 mm 1 mps 650 mmHg 77%
    04:00 +13°C° 0 mm 1 mps 650 mmHg 75%
    05:00 +13°C° 0 mm 1 mps 650 mmHg 73%
    06:00 +15°C° 0 mm 1 mps 651 mmHg 64%
    07:00 +18°C° 0 mm 1 mps 651 mmHg 55%
    08:00 +20°C° 0 mm 1 mps 652 mmHg 47%
    09:00 +21°C° 0 mm 2 mps 652 mmHg 42%
    10:00 +24°C° 0 mm 2 mps 652 mmHg 38%
    11:00 +25°C° 0 mm 3 mps 652 mmHg 34%
    12:00 +26°C° 0 mm 3 mps 651 mmHg 33%
    13:00 +27°C° 0 mm 3 mps 651 mmHg 32%
    14:00 +28°C° 0 mm 3 mps 650 mmHg 32%
    15:00 +27°C° 0 mm 3 mps 650 mmHg 34%
    16:00 +27°C° 0 mm 3 mps 649 mmHg 36%
    17:00 +26°C° 0 mm 3 mps 649 mmHg 38%
    18:00 +24°C° 0 mm 3 mps 649 mmHg 46%
    19:00 +21°C° 0 mm 2 mps 649 mmHg 53%
    20:00 +20°C° 0 mm 1 mps 650 mmHg 61%
    21:00 +19°C° 0 mm 1 mps 650 mmHg 63%
    22:00 +19°C° 0 mm 1 mps 650 mmHg 64%
    23:00 +18°C° 0 mm 1 mps 650 mmHg 66%
    Show more